Regional Weather Roundup
Issued by NWS Sterling, VA

Home | Current Version | Previous Version | Text Only | Print | Product List | Glossary Off
Versions: 1 2 3 4 5 6 7 8 9 10 11 12 13 14 15 16 17 18 19 20 21 22 23 24 25 26 27

000
ASUS41 KLWX 282311
RWRLWX

REGIONAL WEATHER ROUNDUP
NATIONAL WEATHER SERVICE BALTIMORE MD/WASHINGTON DC
700 PM EDT FRI APR 28 2017

Note: "FAIR" indicates few or no clouds below 12,000 feet
with no significant weather and/or obstructions to visibility.
 TC=TEMPERATURE CELSIUS

 * =Non NWS site. Station does not report precipitation (e.g. rain,
    snow, etc.), thunder, or fog.

DCZ001-MDZ009-015-VAZ040>042-051-053>054-290000-
WASHINGTON METRO

CITY           SKY/WX    TMP DP  RH WIND       PRES   REMARKS
WASHINGTON NAT PTSUNNY   80  65  59 S9        30.00F
DULLES         PTSUNNY   80  60  50 SE7       30.00S
ANDREWS AFB    CLOUDY    80  62  55 S8        30.01S
FT BELVOIR     MOSUNNY   80  63  55 SE6       30.00S
QUANTICO       MOSUNNY   77  64  64 SE12      30.01S
COLLEGE PARK*  PTCLDY    82  59  45 S6        30.00S
LEESBURG*      CLOUDY    84  61  45 S9        30.00S
MANASSAS*        N/A     80  64  58 SE10      30.00S

$$

MDZ006>007-011-014-290000-
BALTIMORE METRO

CITY           SKY/WX    TMP DP  RH WIND       PRES   REMARKS
BWI AIRPORT    MOCLDY    79  59  50 SE7       30.01S
MD SCIENCE CTR   N/A     81  57  43 MISG      30.01S
MARTIN STATE   PTCLDY    77  63  61 SE6       30.03S
ANNAPOLIS      CLEAR     76  62  62 S7        30.01F
FORT MEADE*    CLEAR     77  59  53 E7        30.03S

$$

MDZ012-015-019>023-290000-
MARYLAND EASTERN SHORE

CITY           SKY/WX    TMP DP  RH WIND       PRES   REMARKS
OCEAN CITY     CLEAR     69  65  86 S7        30.06R
SALISBURY      CLEAR     79  65  62 S6        30.04R
BAY BRIDGE AP* CLEAR     79  61  53 SE7       30.02S
CAMBRIDGE*     CLEAR     79  61  53 S7        30.03S
EASTON*        PTCLDY    82  59  44 SW5       30.07S

$$

MDZ017>025-290000-
SOUTHERN MARYLAND

CITY           SKY/WX    TMP DP  RH WIND       PRES   REMARKS
PATUXENT RIVER MOCLDY    73  69  87 SE8       30.03R
ST INIGOES     PTCLDY    75  67  76 E8        30.02R
LEONARDTOWN*   CLOUDY    75  61  60 E3        30.04S

$$

MDZ003>005-290000-
NORTH CENTRAL MARYLAND

CITY           SKY/WX    TMP DP  RH WIND       PRES   REMARKS
FREDERICK*     SUNNY     86  64  48 CALM      30.02S
HAGERSTOWN APT SUNNY     82  57  42 SE8       29.99F
WESTMINSTER*   SUNNY     82  55  39 S3        30.02F

$$

MDZ501>502-290000-
WESTERN MARYLAND

CITY           SKY/WX    TMP DP  RH WIND       PRES   REMARKS
OAKLAND*       PTSUNNY   68  41  37 N5        30.07R
CUMBERLAND*    SUNNY     81  52  36 E5        30.00S

$$

VAZ025>031-290000-
SHENANDOAH VALLEY

CITY           SKY/WX    TMP DP  RH WIND       PRES   REMARKS
WINCHESTER*    MOSUNNY   77  59  53 SE10      29.98S
FRONT ROYAL*   SUNNY     79  57  47 S8        29.97S
LURAY*         MOSUNNY   79  55  44 S7        29.99S
NEW MARKET*    MOSUNNY   79  55  43 S7        29.98R
STAUNTON*      MOSUNNY   77  60  54 S7        30.03F
WAYNESBORO*    MOSUNNY   78  62  57 S12       30.03F

$$

WVZ021-048>050-054>055-290000-
EASTERN WEST VIRGINIA PANHANDLE

CITY           SKY/WX    TMP DP  RH WIND       PRES   REMARKS
MARTINSBURG    CLOUDY    81  57  43 SE10      29.97F
PETERSBURG*    SUNNY     84  48  27 S9G16     29.96R

$$

VAZ036>039-050-290000-
CENTRAL FOOTHILLS

CITY           SKY/WX    TMP DP  RH WIND       PRES   REMARKS
CHARLOTTESVILL MOSUNNY   83  60  45 S15       30.00S
CULPEPER*      MOSUNNY   83  62  49 S6        30.01R
ORANGE*        MOSUNNY   81  61  50 CALM      30.00S
GORDONSVILLE*  SUNNY     82  63  51 S6        30.00S
WARRENTON*     PTSUNNY   83  56  40 S6        30.00S

$$

VAZ055>057-290000-
NORTH AND CENTRAL PIEDMONT

CITY           SKY/WX    TMP DP  RH WIND       PRES   REMARKS
FREDERICKSBRG* MOSUNNY   83  64  51 S5        29.99S
STAFFORD*      PTSUNNY   81  60  48 S5        30.04R

$$

NCZ024-NYZ072-PAZ021-071-VAZ022-071-290000-
OTHER REGIONAL OBSERVATIONS

CITY           SKY/WX    TMP DP  RH WIND       PRES   REMARKS
NEW YORK CITY  CLEAR     78  54  43 VRB3      30.00S
PHILADELPHIA   PTCLDY    81  53  37 S12       30.01R
PITTSBURGH     CLOUDY    71  44  37 NE8       30.02F
ROANOKE        MOSUNNY   80  60  50 S8        30.04S
RICHMOND       MOSUNNY   83  67  58 S7        30.00F
RALEIGH        MOSUNNY   85  65  51 S9        30.04S

$$

ANZ530>537-290000-
MARINE OBSERVATIONS

STATION/POSITION TIME  TEMP    WIND        PRES
                       AIR SEA DIR/SP/G
                 (UTC) (F)     (DEG/KT/KT) (MB)
THOMAS PT LIGHT  2300   68 59  180/ 10/ 10   N/A
BALT KEY BRIDGE  2242   78     160/ 13/ 13 1016.1S
COVE POINT       2242   68     180/  7/  7 1017.6R
LEWISETTA        2248          100/  6/  7 1016.4R
SOLOMONS ISLAND  2248           90/  6/  7   N/A
PINEY POINT      2248          120/ 10/ 11   N/A

$$





USA.gov is the U.S. government's official web portal to all federal, state and local government web resources and services.